TimeCEST,TemperatureF,Dew PointF,Humidity,Sea Level PressureIn,VisibilityMPH,Wind Direction,Wind SpeedMPH,Gust SpeedMPH,PrecipitationIn,Events,Conditions,WindDirDegrees,DateUTC
12:20 AM,64.4,59.0,83,30.15,5.0,North,2.3,-,N/A,,Unknown,350,2011-10-05 22:20:00
12:50 AM,62.6,59.0,88,30.15,4.3,NNW,2.3,-,N/A,,Unknown,340,2011-10-05 22:50:00
1:20 AM,62.6,59.0,88,30.12,4.3,North,3.5,-,N/A,,Unknown,360,2011-10-05 23:20:00
1:50 AM,64.4,59.0,83,30.12,4.3,NNE,3.5,-,N/A,,Unknown,20,2011-10-05 23:50:00
2:00 AM,64,58,74,30.15,4,NNE,2.3,,,,Mist,20,2011-10-06 00:00:00
2:50 AM,60.8,57.2,88,30.12,5.0,NW,2.3,-,N/A,,Unknown,320,2011-10-06 00:50:00
3:20 AM,60.8,55.4,82,30.12,5.0,Variable,2.3,-,N/A,,Unknown,0,2011-10-06 01:20:00
3:50 AM,60.8,57.2,88,30.12,5.0,North,2.3,-,N/A,,Unknown,10,2011-10-06 01:50:00
4:20 AM,60.8,57.2,88,30.12,5.0,NNE,1.2,-,N/A,,Unknown,20,2011-10-06 02:20:00
4:50 AM,60.8,57.2,88,30.12,5.0,North,2.3,-,N/A,,Unknown,10,2011-10-06 02:50:00
5:00 AM,61,57,81,30.14,4,NNE,3.5,,,,Mist,20,2011-10-06 03:00:00
5:20 AM,60.8,57.2,88,30.12,5.0,NNE,3.5,-,N/A,,Unknown,20,2011-10-06 03:20:00
5:50 AM,62.6,57.2,82,30.12,5.0,NNE,3.5,-,N/A,,Partly Cloudy,20,2011-10-06 03:50:00
6:20 AM,62.6,57.2,82,30.12,5.0,NE,3.5,-,N/A,,Partly Cloudy,50,2011-10-06 04:20:00
6:50 AM,60.8,57.2,88,30.12,3.7,ENE,3.5,-,N/A,,Partly Cloudy,60,2011-10-06 04:50:00
7:20 AM,60.8,55.4,82,30.12,3.1,Variable,1.2,-,N/A,,Partly Cloudy,0,2011-10-06 05:20:00
7:50 AM,62.6,57.2,82,30.12,3.1,NE,3.5,-,N/A,,Scattered Clouds,40,2011-10-06 05:50:00
8:20 AM,64.4,57.2,77,30.15,3.1,NNE,3.5,-,N/A,,Scattered Clouds,30,2011-10-06 06:20:00
8:50 AM,66.2,59.0,78,30.15,3.1,NE,3.5,-,N/A,,Scattered Clouds,40,2011-10-06 06:50:00
9:20 AM,68.0,60.8,78,30.15,3.1,Variable,1.2,-,N/A,,Scattered Clouds,0,2011-10-06 07:20:00
9:50 AM,69.8,62.6,78,30.15,3.1,NE,3.5,-,N/A,,Partly Cloudy,40,2011-10-06 07:50:00
10:20 AM,73.4,62.6,69,30.15,3.1,Variable,2.3,-,N/A,,Partly Cloudy,0,2011-10-06 08:20:00
10:50 AM,73.4,62.6,69,30.15,3.1,Variable,3.5,-,N/A,,Partly Cloudy,0,2011-10-06 08:50:00
11:00 AM,73,62,59,30.16,4,WSW,4.6,,,,Mist,240,2011-10-06 09:00:00
11:20 AM,75.2,62.6,65,30.15,4.3,Variable,2.3,-,N/A,,Partly Cloudy,0,2011-10-06 09:20:00
11:50 AM,77.0,62.6,61,30.15,5.0,SSE,5.8,-,N/A,,Partly Cloudy,160,2011-10-06 09:50:00
12:20 PM,77.0,62.6,61,30.15,6.2,South,5.8,-,N/A,,Partly Cloudy,190,2011-10-06 10:20:00
12:50 PM,77.0,62.6,61,30.12,6.2,SSW,6.9,-,N/A,,Partly Cloudy,200,2011-10-06 10:50:00
1:20 PM,77.0,60.8,57,30.12,6.2,SSW,8.1,-,N/A,,Partly Cloudy,200,2011-10-06 11:20:00
1:50 PM,77.0,62.6,61,30.12,6.2,South,8.1,-,N/A,,Partly Cloudy,190,2011-10-06 11:50:00
2:00 PM,77,63,52,30.11,6,SSW,8.1,,,,Scattered Clouds,210,2011-10-06 12:00:00
2:20 PM,77.0,62.6,61,30.09,6.2,SSW,8.1,-,N/A,,Scattered Clouds,200,2011-10-06 12:20:00
2:50 PM,77.0,62.6,61,30.09,6.2,South,9.2,-,N/A,,Scattered Clouds,190,2011-10-06 12:50:00
3:20 PM,77.0,64.4,65,30.09,6.2,SSW,9.2,-,N/A,,Scattered Clouds,200,2011-10-06 13:20:00
3:50 PM,75.2,64.4,69,30.09,6.2,South,10.4,-,N/A,,Scattered Clouds,190,2011-10-06 13:50:00
4:20 PM,75.2,64.4,69,30.06,6.2,South,11.5,-,N/A,,Scattered Clouds,190,2011-10-06 14:20:00
4:50 PM,75.2,64.4,69,30.06,6.2,South,8.1,-,N/A,,Partly Cloudy,190,2011-10-06 14:50:00
5:00 PM,74,64,64,30.07,22,South,8.1,,,,Partly Cloudy,190,2011-10-06 15:00:00
5:20 PM,73.4,64.4,73,30.06,-9999.0,South,8.1,-,N/A,,Clear,190,2011-10-06 15:20:00
5:50 PM,73.4,64.4,73,30.06,-9999.0,South,6.9,-,N/A,,Clear,190,2011-10-06 15:50:00
6:20 PM,71.6,64.4,78,30.06,-9999.0,South,5.8,-,N/A,,Clear,190,2011-10-06 16:20:00
6:50 PM,71.6,62.6,73,30.06,-9999.0,SSW,4.6,-,N/A,,Clear,210,2011-10-06 16:50:00
7:20 PM,71.6,62.6,73,30.06,6.2,West,6.9,-,N/A,,Partly Cloudy,270,2011-10-06 17:20:00
7:50 PM,69.8,62.6,78,30.06,6.2,West,5.8,-,N/A,,Partly Cloudy,270,2011-10-06 17:50:00
8:00 PM,69,62,74,30.09,10,West,5.8,,,,Scattered Clouds,260,2011-10-06 18:00:00
8:20 PM,69.8,62.6,78,30.09,6.2,West,4.6,-,N/A,,Partly Cloudy,270,2011-10-06 18:20:00
8:50 PM,68.0,60.8,78,30.06,6.2,West,4.6,-,N/A,,Partly Cloudy,270,2011-10-06 18:50:00
9:20 PM,69.8,62.6,78,30.06,6.2,WSW,2.3,-,N/A,,Partly Cloudy,240,2011-10-06 19:20:00
9:50 PM,69.8,62.6,78,30.06,6.2,SSW,2.3,-,N/A,,Partly Cloudy,210,2011-10-06 19:50:00
10:20 PM,68.0,60.8,78,30.06,6.2,Variable,1.2,-,N/A,,Partly Cloudy,0,2011-10-06 20:20:00
10:50 PM,68.0,62.6,83,30.06,6.2,Variable,2.3,-,N/A,,Partly Cloudy,0,2011-10-06 20:50:00
11:00 PM,68,62,75,30.08,10,South,2.3,,,,Scattered Clouds,170,2011-10-06 21:00:00
11:20 PM,66.2,60.8,83,30.06,6.2,Calm,Calm,-,N/A,,Partly Cloudy,0,2011-10-06 21:20:00
11:50 PM,66.2,62.6,88,30.06,6.2,South,2.3,-,N/A,,Partly Cloudy,190,2011-10-06 21:50:00